QTR499 OTHH-OMDB

Flight info

Callsign QTR499
Flight time 0h 48m
Altitude 21000
Route ALSEM L305 ITBUL M677 VUTEB
Aircraft A35K/H-SDE2E3GHIJ1J3J4J5LM1ORWXY/LB1D1

Departure

Time 2026-05-05 15:17
Airport Hamad International Airport (OTHH)

Arrival

Time 2026-05-05 16:06
Airport Dubai International Airport (OMDB)
Time Latitude Longitude Altitude Speed Heading
2026-05-05 14:51 25.26316 51.61589 36 ft 0 kts 159°
2026-05-05 15:08 25.26321 51.61588 35 ft 3 kts 159°
2026-05-05 15:08 25.26345 51.61577 36 ft 4 kts 159°
2026-05-05 15:09 25.26370 51.61567 35 ft 3 kts 159°
2026-05-05 15:09 25.26389 51.61557 34 ft 4 kts 146°
2026-05-05 15:09 25.26403 51.61541 33 ft 4 kts 83°
2026-05-05 15:09 25.26396 51.61515 33 ft 4 kts 68°
2026-05-05 15:10 25.26389 51.61496 33 ft 0 kts 68°
2026-05-05 15:12 25.26390 51.61498 33 ft 2 kts 68°
2026-05-05 15:12 25.26400 51.61526 33 ft 6 kts 68°
2026-05-05 15:13 25.26421 51.61586 34 ft 10 kts 70°
2026-05-05 15:13 25.26453 51.61673 36 ft 14 kts 68°
2026-05-05 15:13 25.26493 51.61782 36 ft 14 kts 68°
2026-05-05 15:13 25.26457 51.61857 36 ft 13 kts 153°
2026-05-05 15:14 25.26361 51.61902 36 ft 17 kts 158°
2026-05-05 15:14 25.26242 51.61955 36 ft 20 kts 158°
2026-05-05 15:14 25.26103 51.62017 36 ft 23 kts 158°
2026-05-05 15:14 25.25939 51.62089 36 ft 27 kts 158°
2026-05-05 15:15 25.25761 51.62166 36 ft 29 kts 158°
2026-05-05 15:15 25.25575 51.62248 36 ft 28 kts 158°
2026-05-05 15:15 25.25463 51.62307 36 ft 13 kts 133°
2026-05-05 15:15 25.25459 51.62397 35 ft 14 kts 72°
2026-05-05 15:16 25.25498 51.62511 34 ft 18 kts 66°
2026-05-05 15:16 25.25551 51.62641 33 ft 11 kts 53°
2026-05-05 15:16 25.25615 51.62645 33 ft 11 kts 341°
2026-05-05 15:16 25.25767 51.62581 32 ft 54 kts 338°
2026-05-05 15:17 25.26378 51.62311 33 ft 133 kts 338°
2026-05-05 15:17 25.27430 51.61838 229 ft 181 kts 338°
2026-05-05 15:17 25.28540 51.61321 1163 ft 175 kts 340°
2026-05-05 15:17 25.29758 51.60821 1660 ft 202 kts 342°
2026-05-05 15:18 25.31189 51.60280 1907 ft 233 kts 342°
2026-05-05 15:18 25.32768 51.59654 2549 ft 241 kts 341°
2026-05-05 15:18 25.34393 51.59192 3300 ft 244 kts
2026-05-05 15:18 25.36029 51.59621 3788 ft 243 kts 22°
2026-05-05 15:19 25.37615 51.60317 3967 ft 246 kts 21°
2026-05-05 15:19 25.39233 51.60940 4006 ft 247 kts 18°
2026-05-05 15:19 25.40882 51.61483 3992 ft 248 kts 15°
2026-05-05 15:19 25.42548 51.61977 4000 ft 248 kts 14°
2026-05-05 15:20 25.44201 51.62502 3988 ft 248 kts 21°
2026-05-05 15:20 25.45609 51.63573 4004 ft 248 kts 50°
2026-05-05 15:20 25.46322 51.65315 4008 ft 260 kts 81°
2026-05-05 15:20 25.46196 51.67351 4002 ft 272 kts 100°
2026-05-05 15:21 25.45767 51.69406 3985 ft 275 kts 102°
2026-05-05 15:21 25.45318 51.71465 4000 ft 275 kts 102°
2026-05-05 15:21 25.44884 51.73520 3990 ft 275 kts 102°
2026-05-05 15:21 25.44457 51.75585 3989 ft 275 kts 101°
2026-05-05 15:22 25.44037 51.77647 3991 ft 275 kts 101°
2026-05-05 15:22 25.43619 51.79714 3991 ft 275 kts 101°
2026-05-05 15:22 25.43203 51.81775 4009 ft 275 kts 101°
2026-05-05 15:22 25.42786 51.83849 3994 ft 276 kts 101°
2026-05-05 15:23 25.42369 51.85927 3993 ft 277 kts 101°
2026-05-05 15:23 25.41951 51.88003 4011 ft 277 kts 101°
2026-05-05 15:23 25.41534 51.90079 4246 ft 278 kts 101°
2026-05-05 15:23 25.41110 51.92181 4974 ft 281 kts 101°
2026-05-05 15:24 25.40683 51.94299 5886 ft 284 kts 101°
2026-05-05 15:24 25.40249 51.96446 6675 ft 289 kts 101°
2026-05-05 15:24 25.39807 51.98636 7480 ft 294 kts 101°
2026-05-05 15:24 25.39358 52.00858 8350 ft 298 kts 101°
2026-05-05 15:25 25.38902 52.03115 9244 ft 303 kts 101°
2026-05-05 15:25 25.38438 52.05407 10095 ft 308 kts 101°
2026-05-05 15:25 25.37959 52.07781 10678 ft 326 kts 100°
2026-05-05 15:25 25.37449 52.10312 11095 ft 348 kts 100°
2026-05-05 15:26 25.36906 52.12997 11502 ft 367 kts 101°
2026-05-05 15:26 25.36345 52.15756 12078 ft 377 kts 101°
2026-05-05 15:26 25.35784 52.18652 12847 ft 382 kts 97°
2026-05-05 15:26 25.35655 52.21569 13655 ft 381 kts 82°
2026-05-05 15:27 25.36081 52.24427 14342 ft 384 kts 76°
2026-05-05 15:27 25.36644 52.27341 14980 ft 391 kts 76°
2026-05-05 15:27 25.37219 52.30297 15631 ft 397 kts 76°
2026-05-05 15:27 25.37796 52.33302 16280 ft 403 kts 76°
2026-05-05 15:28 25.38378 52.36361 16921 ft 409 kts 77°
2026-05-05 15:28 25.38964 52.39459 17570 ft 415 kts 77°
2026-05-05 15:28 25.39557 52.42610 18190 ft 421 kts 77°
2026-05-05 15:28 25.40157 52.45799 18777 ft 426 kts 77°
2026-05-05 15:29 25.40761 52.49018 19424 ft 430 kts 77°
2026-05-05 15:29 25.41370 52.52271 20075 ft 434 kts 77°
2026-05-05 15:29 25.41983 52.55548 20560 ft 436 kts 78°
2026-05-05 15:29 25.42598 52.58842 20750 ft 442 kts 78°
2026-05-05 15:30 25.43233 52.62240 20773 ft 461 kts 78°
2026-05-05 15:30 25.43888 52.65757 20770 ft 468 kts 78°
2026-05-05 15:30 25.44546 52.69292 20771 ft 470 kts 78°
2026-05-05 15:30 25.45203 52.72831 20771 ft 470 kts 78°
2026-05-05 15:31 25.45859 52.76382 20773 ft 470 kts 78°
2026-05-05 15:31 25.46516 52.79922 20771 ft 470 kts 78°
2026-05-05 15:31 25.47175 52.83465 20771 ft 469 kts 78°
2026-05-05 15:31 25.47866 52.86993 20771 ft 469 kts 76°
2026-05-05 15:32 25.48687 52.90482 20771 ft 469 kts 74°
2026-05-05 15:32 25.49578 52.93952 20771 ft 469 kts 73°
2026-05-05 15:32 25.50488 52.97420 20771 ft 469 kts 73°
2026-05-05 15:32 25.51387 53.00883 20771 ft 469 kts 73°
2026-05-05 15:33 25.52272 53.04356 20770 ft 468 kts 73°
2026-05-05 15:33 25.53141 53.07831 20771 ft 468 kts 74°
2026-05-05 15:33 25.53999 53.11306 20771 ft 468 kts 74°
2026-05-05 15:33 25.54850 53.14781 20771 ft 468 kts 74°
2026-05-05 15:34 25.55698 53.18261 20772 ft 468 kts 74°
2026-05-05 15:34 25.56545 53.21736 20771 ft 468 kts 74°
2026-05-05 15:34 25.57393 53.25221 20771 ft 468 kts 74°
2026-05-05 15:34 25.58239 53.28700 20771 ft 468 kts 74°
2026-05-05 15:35 25.59074 53.32130 20770 ft 468 kts 74°
2026-05-05 15:35 25.59931 53.35657 20774 ft 468 kts 74°
2026-05-05 15:35 25.60777 53.39142 20774 ft 468 kts 74°
2026-05-05 15:35 25.61611 53.42582 20774 ft 468 kts 74°
2026-05-05 15:36 25.62463 53.46108 20772 ft 468 kts 74°
2026-05-05 15:36 25.63306 53.49589 20771 ft 468 kts 74°
2026-05-05 15:36 25.64149 53.53070 20771 ft 468 kts 74°
2026-05-05 15:36 25.64992 53.56551 20771 ft 468 kts 74°
2026-05-05 15:37 25.65835 53.60038 20774 ft 468 kts 74°
2026-05-05 15:37 25.66664 53.63473 20774 ft 468 kts 74°
2026-05-05 15:37 25.67505 53.66963 20774 ft 468 kts 74°
2026-05-05 15:37 25.68344 53.70451 20774 ft 468 kts 74°
2026-05-05 15:38 25.68978 53.73090 20770 ft 468 kts 74°
2026-05-05 15:38 25.69813 53.76583 20771 ft 468 kts 75°
2026-05-05 15:38 25.70647 53.80070 20771 ft 468 kts 75°
2026-05-05 15:38 25.71482 53.83557 20771 ft 468 kts 75°
2026-05-05 15:39 25.72316 53.87041 20775 ft 468 kts 75°
2026-05-05 15:39 25.73148 53.90524 20774 ft 468 kts 75°
2026-05-05 15:39 25.73981 53.94017 20774 ft 468 kts 75°
2026-05-05 15:39 25.74811 53.97502 20774 ft 468 kts 75°
2026-05-05 15:40 25.75642 54.00993 20771 ft 468 kts 75°
2026-05-05 15:40 25.76545 54.04453 20771 ft 468 kts 71°
2026-05-05 15:40 25.77607 54.07863 20676 ft 465 kts 69°
2026-05-05 15:40 25.78727 54.11205 20439 ft 460 kts 69°
2026-05-05 15:41 25.79852 54.14514 20212 ft 458 kts 69°
2026-05-05 15:41 25.80824 54.17877 19963 ft 457 kts 77°
2026-05-05 15:41 25.81136 54.21374 19727 ft 456 kts 92°
2026-05-05 15:41 25.80661 54.24843 19506 ft 454 kts 103°
2026-05-05 15:42 25.79825 54.28209 19277 ft 453 kts 107°
2026-05-05 15:42 25.78825 54.31520 19039 ft 451 kts 109°
2026-05-05 15:42 25.77762 54.34779 18739 ft 448 kts 110°
2026-05-05 15:42 25.76695 54.38000 18197 ft 442 kts 110°
2026-05-05 15:43 25.75637 54.41220 17500 ft 438 kts 110°
2026-05-05 15:43 25.74625 54.44356 16849 ft 433 kts 109°
2026-05-05 15:43 25.73631 54.47485 16201 ft 427 kts 109°
2026-05-05 15:43 25.72662 54.50571 15554 ft 423 kts 109°
2026-05-05 15:44 25.71702 54.53640 14926 ft 418 kts 108°
2026-05-05 15:44 25.70757 54.56670 14323 ft 413 kts 108°
2026-05-05 15:44 25.69830 54.59642 14039 ft 400 kts 108°
2026-05-05 15:44 25.68936 54.62486 13919 ft 382 kts 109°
2026-05-05 15:45 25.68066 54.65192 13798 ft 365 kts 109°
2026-05-05 15:45 25.67230 54.67782 13683 ft 349 kts 109°
2026-05-05 15:45 25.66429 54.70266 13565 ft 335 kts 109°
2026-05-05 15:45 25.65662 54.72650 13413 ft 321 kts 109°
2026-05-05 15:46 25.64928 54.74931 13292 ft 308 kts 108°
2026-05-05 15:46 25.64223 54.77121 13143 ft 296 kts 108°
2026-05-05 15:46 25.63552 54.79204 13011 ft 285 kts 108°
2026-05-05 15:46 25.62891 54.81257 12742 ft 282 kts 109°
2026-05-05 15:47 25.62236 54.83293 12439 ft 280 kts 108°
2026-05-05 15:47 25.61797 54.84658 12253 ft 278 kts 109°
2026-05-05 15:47 25.60934 54.87317 11927 ft 275 kts 110°
2026-05-05 15:47 25.60182 54.89296 11799 ft 282 kts 113°
2026-05-05 15:48 25.59381 54.91282 11661 ft 282 kts 113°
2026-05-05 15:48 25.58588 54.93267 11522 ft 282 kts 113°
2026-05-05 15:48 25.57801 54.95256 11377 ft 281 kts 112°
2026-05-05 15:48 25.57022 54.97237 11247 ft 280 kts 112°
2026-05-05 15:49 25.56247 54.99216 11091 ft 280 kts 113°
2026-05-05 15:49 25.55476 55.01187 10956 ft 279 kts 112°
2026-05-05 15:49 25.54690 55.03146 10792 ft 278 kts 115°
2026-05-05 15:49 25.53773 55.05035 10666 ft 278 kts 118°
2026-05-05 15:50 25.52812 55.06889 10532 ft 277 kts 119°
2026-05-05 15:50 25.51851 55.08735 10387 ft 277 kts 119°
2026-05-05 15:50 25.50889 55.10582 10261 ft 277 kts 119°
2026-05-05 15:50 25.50318 55.11682 10168 ft 276 kts 119°
2026-05-05 15:51 25.49582 55.13097 10046 ft 276 kts 119°
2026-05-05 15:51 25.48629 55.14931 9922 ft 275 kts 119°
2026-05-05 15:51 25.47676 55.16765 9778 ft 274 kts 119°
2026-05-05 15:51 25.46725 55.18596 9634 ft 274 kts 119°
2026-05-05 15:52 25.45663 55.20339 9491 ft 274 kts 129°
2026-05-05 15:52 25.44825 55.21425 9394 ft 274 kts 131°
2026-05-05 15:52 25.43135 55.23494 9214 ft 274 kts 132°
2026-05-05 15:52 25.42269 55.24550 9128 ft 273 kts 132°
2026-05-05 15:53 25.40995 55.26107 8998 ft 273 kts 132°
2026-05-05 15:53 25.39731 55.27654 8854 ft 272 kts 132°
2026-05-05 15:53 25.38456 55.29216 8696 ft 272 kts 132°
2026-05-05 15:53 25.37206 55.30750 8586 ft 263 kts 132°
2026-05-05 15:54 25.35989 55.32196 8449 ft 252 kts 136°
2026-05-05 15:54 25.34576 55.33302 8327 ft 248 kts 150°
2026-05-05 15:54 25.33081 55.34198 8204 ft 247 kts 153°
2026-05-05 15:54 25.31536 55.35090 8080 ft 247 kts 152°
2026-05-05 15:55 25.30037 55.35959 7997 ft 247 kts 152°
2026-05-05 15:55 25.28494 55.36857 7762 ft 250 kts 152°
2026-05-05 15:55 25.26981 55.37740 7468 ft 247 kts 152°
2026-05-05 15:55 25.25471 55.38623 7179 ft 245 kts 152°
2026-05-05 15:56 25.23974 55.39498 6851 ft 244 kts 152°
2026-05-05 15:56 25.22473 55.40376 6535 ft 243 kts 152°
2026-05-05 15:56 25.20979 55.41250 6207 ft 243 kts 152°
2026-05-05 15:56 25.19487 55.42122 5876 ft 242 kts 152°
2026-05-05 15:57 25.18004 55.42991 5572 ft 240 kts 151°
2026-05-05 15:57 25.16537 55.43851 5274 ft 238 kts 151°
2026-05-05 15:57 25.15072 55.44705 4946 ft 237 kts 150°
2026-05-05 15:57 25.13623 55.45554 4630 ft 235 kts 150°
2026-05-05 15:58 25.12187 55.46403 4308 ft 233 kts 149°
2026-05-05 15:58 25.10941 55.47504 3974 ft 229 kts 127°
2026-05-05 15:58 25.10048 55.48929 3672 ft 225 kts 120°
2026-05-05 15:58 25.09237 55.50404 3350 ft 224 kts 119°
2026-05-05 15:59 25.08438 55.51868 3093 ft 222 kts 119°
2026-05-05 15:59 25.07638 55.53325 2848 ft 221 kts 120°
2026-05-05 15:59 25.06861 55.54771 2560 ft 218 kts 117°
2026-05-05 15:59 25.06530 55.56379 2199 ft 217 kts 86°
2026-05-05 16:00 25.07072 55.57907 2025 ft 218 kts 52°
2026-05-05 16:00 25.08306 55.58872 2015 ft 222 kts 22°
2026-05-05 16:00 25.09836 55.59140 2010 ft 228 kts 355°
2026-05-05 16:00 25.11308 55.58613 1998 ft 217 kts 336°
2026-05-05 16:01 25.12611 55.57840 1998 ft 211 kts 333°
2026-05-05 16:01 25.13825 55.56944 1999 ft 211 kts 319°
2026-05-05 16:01 25.14702 55.55757 2011 ft 195 kts 303°
2026-05-05 16:01 25.15394 55.54473 2009 ft 191 kts 300°
2026-05-05 16:02 25.16050 55.53198 2002 ft 192 kts 300°
2026-05-05 16:02 25.16718 55.51921 2004 ft 191 kts 303°
2026-05-05 16:02 25.17385 55.50698 2001 ft 182 kts 304°
2026-05-05 16:02 25.18022 55.49544 1978 ft 173 kts 304°
2026-05-05 16:03 25.18658 55.48404 1800 ft 170 kts 304°
2026-05-05 16:03 25.19258 55.47325 1583 ft 164 kts 304°
2026-05-05 16:03 25.19837 55.46277 1354 ft 156 kts 305°
2026-05-05 16:03 25.20388 55.45278 1170 ft 149 kts 305°
2026-05-05 16:04 25.20928 55.44306 980 ft 148 kts 305°
2026-05-05 16:04 25.21468 55.43338 798 ft 147 kts 303°
2026-05-05 16:04 25.22006 55.42391 644 ft 144 kts 301°
2026-05-05 16:04 25.22504 55.41451 450 ft 140 kts 301°
2026-05-05 16:05 25.22988 55.40548 272 ft 134 kts 301°
2026-05-05 16:05 25.23479 55.39681 111 ft 135 kts 302°
2026-05-05 16:05 25.23951 55.38828 32 ft 127 kts 302°
2026-05-05 16:05 25.24347 55.38122 32 ft 86 kts 301°
2026-05-05 16:06 25.24583 55.37697 28 ft 44 kts 301°
2026-05-05 16:06 25.24725 55.37438 28 ft 39 kts 297°
2026-05-05 16:06 25.24781 55.37200 30 ft 24 kts 273°
2026-05-05 16:06 25.24788 55.37026 28 ft 24 kts 273°
2026-05-05 16:07 25.24844 55.36850 28 ft 25 kts 290°
2026-05-05 16:07 25.24895 55.36666 26 ft 26 kts 296°
2026-05-05 16:07 25.24988 55.36494 27 ft 27 kts 302°
2026-05-05 16:07 25.25088 55.36318 27 ft 27 kts 301°
2026-05-05 16:08 25.25188 55.36139 27 ft 28 kts 302°
2026-05-05 16:08 25.25296 55.35948 27 ft 31 kts 302°
2026-05-05 16:08 25.25412 55.35742 27 ft 30 kts 302°
2026-05-05 16:08 25.25510 55.35567 27 ft 28 kts 302°
2026-05-05 16:09 25.25621 55.35370 27 ft 31 kts 302°
2026-05-05 16:09 25.25707 55.35217 27 ft 20 kts 302°
2026-05-05 16:09 25.25783 55.35078 27 ft 23 kts 300°
2026-05-05 16:09 25.25850 55.34945 27 ft 9 kts 287°
2026-05-05 16:10 25.25859 55.34865 27 ft 12 kts 273°
2026-05-05 16:10 25.25860 55.34770 27 ft 11 kts 258°
2026-05-05 16:10 25.25821 55.34724 27 ft 6 kts 219°
2026-05-05 16:10 25.25795 55.34706 27 ft 4 kts 211°
2026-05-05 16:11 25.25784 55.34698 27 ft 3 kts 211°
2026-05-05 16:11 25.25778 55.34695 27 ft 0 kts 211°